Orbital Elements at Epoch 2459000.5 (2020-May-31.0) TDB
Reference: JPL 23 (heliocentric ecliptic J2000)
Element | Value | Uncertainty (1-sigma) | Units |
e | .03861954047075276 | 3.1845e-08 | |
a | 2.930800956088982 | 1.6716e-08 | au |
q | 2.817614769953583 | 8.8649e-08 | au |
i | 1.985315458667931 | 3.7248e-06 | deg |
node | 181.8821037494274 | 9.7067e-05 | deg |
peri | 59.21737012007202 | 0.00011033 | deg |
M | 137.9823648018254 | 5.3824e-05 | deg |
tp | 2458298.076558233250 (2018-Jun-28.57655823) | 0.00027263 | TDB |
period | 1832.643174359371 5.02 | 1.5679e-05 4.293e-08 | d yr |
n | .1964375853612876 | 1.6806e-09 | deg/d |
Q | 3.043987142224382 | 1.7361e-08 | au |
|
| | Orbit Determination Parameters
Additional Information
|